Home > Weather > Radom > Past weeks

Flag for Poland Past Weather in Radom, Poland — Yesterday and Last 2 Weeks

Now
70 °F

Partly sunny.


Feels Like: 70 °F
Forecast: 63 / 76 °F
Wind: 9 mph from West

Location: Warsaw Okecie Airport

Current Time: Jun 26, 2016 at 9:14:02 PM

Latest Report: Jun 26, 2016 at 9:00 PM


Visibility: N/A

Pressure: 29.95 "Hg

Humidity: 94%

Dew Point: 68 °F

Location of RadomLocation

Past Weather in Radom — Graph

°F

Radom Temperature Yesterday

Maximum temperature yesterday: 93 °F (at 3:00 PM)
Minimum temperature yesterday: 72 °F (at 2:00 AM)
Average temperature yesterday: 82 °F

High & Low Weather Summary for the Past Weeks

 TemperatureHumidityPressure
High93 °F (Jun 25, 3:00 PM)100% (Jun 16, 1:30 AM)30.33 "Hg (Jun 16, 1:30 AM)
Low46 °F (Jun 12, 2:30 AM)27% (Jun 13, 5:00 PM)29.45 "Hg (Jun 17, 12:30 PM)
Average70 °F63%29.92 "Hg
* Reported Jun 11 7:00 PM — Jun 26 7:30 PM, Radom, Weather by CustomWeather, © 2016

Note: Actual official high and low records may vary slightly from our data, if they occured in-between our weather recording intervals... More about our weather records

Advertising

Radom Weather History for the Previous 24 Hours

Scroll right to see more
 ConditionsComfort  
Time TempWeatherWind HumidityBarometerVisibility
7:30 PM
Sun, Jun 26
70 °FScattered clouds.5 mph94%29.92 "HgN/A
7:00 PM70 °FSunny.3 mph83%29.92 "Hg10 mi
6:30 PM70 °FPassing clouds.7 mph88%29.89 "HgN/A
6:00 PM70 °FScattered clouds.14 mph88%29.86 "HgN/A
5:30 PM68 °FPassing clouds.8 mph94%29.92 "HgN/A
5:00 PM70 °FThundershowers. Scattered clouds.14 mph88%29.89 "HgN/A
4:30 PM68 °FThunderstorms. Broken clouds.7 mph100%29.95 "HgN/A
4:00 PM66 °FThunderstorms. Partly sunny.13 mph100%29.89 "HgN/A
3:30 PM77 °FSprinkles. Partly sunny.16 mph65%29.89 "HgN/A
3:00 PM84 °FScattered clouds.7 mph58%29.83 "HgN/A
2:30 PM84 °FScattered clouds.5 mph58%29.83 "HgN/A
2:00 PM91 °FScattered clouds.6 mph44%29.83 "HgN/A
1:30 PM93 °FScattered clouds.2 mph41%29.86 "HgN/A
1:00 PM91 °FPassing clouds.2 mph44%29.86 "HgN/A
12:30 PM93 °FPassing clouds.3 mph44%29.89 "HgN/A
12:00 PM90 °FPassing clouds.5 mph49%29.89 "HgN/A
11:30 AM90 °FPassing clouds.3 mph52%29.89 "HgN/A
11:00 AM88 °FPassing clouds.5 mph55%29.89 "HgN/A
10:30 AM88 °FPassing clouds.6 mph52%29.89 "HgN/A
10:00 AM86 °FPassing clouds.6 mph59%29.89 "HgN/A
9:30 AM84 °FPassing clouds.6 mph62%29.89 "HgN/A
9:00 AM82 °FPassing clouds.6 mph66%29.89 "HgN/A
8:30 AM81 °FPassing clouds.6 mph70%29.89 "HgN/A
8:00 AM77 °FPassing clouds.7 mph69%29.89 "HgN/A
7:30 AM75 °FSunny.8 mph74%29.89 "Hg10 mi
7:00 AM75 °FSunny.7 mph74%29.89 "Hg10 mi
6:30 AM73 °FPassing clouds.5 mph78%29.92 "HgN/A
6:00 AM72 °FSunny.6 mph83%29.89 "Hg10 mi
5:30 AM72 °FSunny.6 mph83%29.89 "Hg10 mi
5:00 AM72 °FClear.8 mph83%29.89 "Hg10 mi
4:30 AM68 °FClear.8 mph94%29.89 "Hg10 mi
4:00 AM70 °FClear.7 mph88%29.89 "Hg10 mi
3:30 AM73 °FClear.5 mph83%29.89 "Hg10 mi
3:00 AM70 °FClear.No wind94%29.92 "Hg10 mi
2:30 AM72 °FClear.2 mph83%29.92 "Hg10 mi
2:00 AM73 °FPassing clouds.5 mph83%29.92 "HgN/A
1:30 AM73 °FClear.7 mph83%29.92 "Hg10 mi
1:00 AM75 °FClear.9 mph78%29.92 "Hg10 mi
12:30 AM75 °FPassing clouds.6 mph78%29.92 "HgN/A
12:00 AM75 °FClear.9 mph78%29.89 "Hg10 mi
11:30 PM
Sat, Jun 25
75 °FClear.9 mph78%29.89 "Hg10 mi
11:00 PM75 °FClear.9 mph78%29.89 "Hg10 mi
10:30 PM75 °FClear.9 mph78%29.89 "Hg10 mi
10:00 PM75 °FSunny.8 mph78%29.89 "Hg10 mi
9:30 PM75 °FSunny.9 mph78%29.89 "Hg10 mi
9:00 PM77 °FSunny.12 mph74%29.89 "Hg10 mi
Weather by CustomWeather, © 2016

See weather overviewHow to use our weather pages